Hourly Weather Barisal

Today, 11 August, Tuesday

Time Temperature Precipitation Wind Pressure Humidity
00:00 +30°C° 0 mm 1 mps 750 mmHg 91%
01:00 +30°C° 0.7 mm 1 mps 750 mmHg 90%
02:00 +30°C° 0.7 mm 1 mps 749 mmHg 90%
03:00 +30°C° 0.7 mm 2 mps 749 mmHg 89%
04:00 +30°C° 0.2 mm 2 mps 749 mmHg 89%
05:00 +30°C° 0.2 mm 2 mps 749 mmHg 89%
06:00 +30°C° 0 mm 1 mps 750 mmHg 90%
07:00 +31°C° 1 mm 1 mps 750 mmHg 84%
08:00 +32°C° 1 mm 2 mps 750 mmHg 77%
09:00 +34°C° 1 mm 3 mps 750 mmHg 71%
10:00 +35°C° 0.5 mm 3 mps 750 mmHg 69%
11:00 +35°C° 0.5 mm 4 mps 750 mmHg 66%
12:00 +36°C° 0 mm 5 mps 750 mmHg 65%
13:00 +36°C° 0.6 mm 5 mps 750 mmHg 66%
14:00 +36°C° 0.6 mm 5 mps 749 mmHg 66%
15:00 +36°C° 0.6 mm 6 mps 748 mmHg 67%
16:00 +35°C° 0.3 mm 5 mps 749 mmHg 70%
17:00 +34°C° 0.3 mm 5 mps 749 mmHg 73%
18:00 +33°C° 0 mm 4 mps 749 mmHg 76%
19:00 +33°C° 0 mm 4 mps 749 mmHg 78%
20:00 +32°C° 0 mm 4 mps 750 mmHg 81%
21:00 +32°C° 0 mm 4 mps 750 mmHg 83%
22:00 +31°C° 0 mm 3 mps 750 mmHg 84%
23:00 +31°C° 0 mm 3 mps 750 mmHg 85%

Tomorrow, 12 August, Wednesday

Time Temperature Precipitation Wind Pressure Humidity
00:00 +30°C° 0 mm 3 mps 751 mmHg 86%
01:00 +30°C° 0.7 mm 3 mps 750 mmHg 86%
02:00 +30°C° 0.7 mm 3 mps 750 mmHg 86%
03:00 +30°C° 0.7 mm 3 mps 750 mmHg 86%
04:00 +30°C° 1.2 mm 3 mps 750 mmHg 86%
05:00 +30°C° 1.2 mm 3 mps 750 mmHg 87%
06:00 +30°C° 1.2 mm 3 mps 750 mmHg 87%
07:00 +31°C° 1.2 mm 3 mps 750 mmHg 83%
08:00 +33°C° 1.2 mm 4 mps 751 mmHg 79%
09:00 +33°C° 1.2 mm 4 mps 751 mmHg 75%
10:00 +34°C° 0.9 mm 5 mps 751 mmHg 72%
11:00 +35°C° 0.9 mm 5 mps 751 mmHg 69%
12:00 +36°C° 0.9 mm 5 mps 751 mmHg 66%
13:00 +36°C° 0.2 mm 6 mps 750 mmHg 66%
14:00 +36°C° 0.2 mm 6 mps 749 mmHg 66%
15:00 +36°C° 0.2 mm 6 mps 749 mmHg 67%
16:00 +35°C° 0.1 mm 6 mps 749 mmHg 70%
17:00 +34°C° 0.1 mm 6 mps 749 mmHg 73%
18:00 +33°C° 0.1 mm 5 mps 749 mmHg 76%
19:00 +33°C° 0 mm 5 mps 749 mmHg 78%
20:00 +32°C° 0 mm 5 mps 750 mmHg 81%
21:00 +32°C° 0 mm 4 mps 751 mmHg 83%
22:00 +32°C° 0.1 mm 4 mps 751 mmHg 84%
23:00 +30°C° 0.1 mm 4 mps 751 mmHg 85%

Day after tomorrow, 13 August, Thursday

Time Temperature Precipitation Wind Pressure Humidity
00:00 +30°C° 0.1 mm 4 mps 751 mmHg 85%
01:00 +30°C° 0.1 mm 4 mps 750 mmHg 86%
02:00 +30°C° 0.1 mm 4 mps 750 mmHg 86%
03:00 +30°C° 0.1 mm 3 mps 749 mmHg 87%
04:00 +30°C° 0 mm 3 mps 749 mmHg 87%
05:00 +30°C° 0 mm 3 mps 749 mmHg 88%
06:00 +29°C° 0 mm 3 mps 749 mmHg 88%
07:00 +30°C° 0.5 mm 4 mps 749 mmHg 84%
08:00 +33°C° 0.5 mm 5 mps 750 mmHg 80%
09:00 +34°C° 0.5 mm 5 mps 750 mmHg 75%
10:00 +34°C° 0.8 mm 5 mps 750 mmHg 72%
11:00 +35°C° 0.8 mm 6 mps 750 mmHg 69%
12:00 +36°C° 0.8 mm 6 mps 749 mmHg 66%
13:00 +36°C° 0.3 mm 6 mps 749 mmHg 66%
14:00 +36°C° 0.3 mm 6 mps 748 mmHg 65%
15:00 +36°C° 0.3 mm 6 mps 747 mmHg 65%
16:00 +35°C° 0.2 mm 6 mps 747 mmHg 68%
17:00 +34°C° 0.2 mm 6 mps 747 mmHg 72%
18:00 +33°C° 0.2 mm 6 mps 747 mmHg 75%
19:00 +33°C° 0 mm 6 mps 748 mmHg 78%
20:00 +32°C° 0 mm 5 mps 748 mmHg 80%
21:00 +32°C° 0 mm 5 mps 749 mmHg 82%
22:00 +32°C° 0 mm 5 mps 749 mmHg 82%
23:00 +32°C° 0 mm 5 mps 749 mmHg 83%

14 August, Friday

Time Temperature Precipitation Wind Pressure Humidity
00:00 +30°C° 0 mm 4 mps 749 mmHg 84%
01:00 +30°C° 0.2 mm 4 mps 748 mmHg 85%
02:00 +30°C° 0.2 mm 4 mps 748 mmHg 85%
03:00 +30°C° 0.2 mm 3 mps 747 mmHg 86%
04:00 +30°C° 1 mm 3 mps 748 mmHg 87%
05:00 +30°C° 1 mm 3 mps 748 mmHg 87%
06:00 +30°C° 1 mm 3 mps 748 mmHg 88%
07:00 +31°C° 0.8 mm 3 mps 748 mmHg 83%
08:00 +33°C° 0.8 mm 4 mps 748 mmHg 78%
09:00 +34°C° 0.8 mm 4 mps 748 mmHg 73%
10:00 +34°C° 0.8 mm 5 mps 748 mmHg 72%
11:00 +35°C° 0.8 mm 5 mps 748 mmHg 70%
12:00 +35°C° 0.8 mm 6 mps 747 mmHg 69%
13:00 +35°C° 0.5 mm 6 mps 747 mmHg 69%
14:00 +35°C° 0.5 mm 6 mps 746 mmHg 68%
15:00 +35°C° 0.5 mm 6 mps 745 mmHg 68%
16:00 +34°C° 0 mm 6 mps 745 mmHg 71%
17:00 +34°C° 0 mm 6 mps 745 mmHg 74%
18:00 +33°C° 0 mm 5 mps 745 mmHg 77%
19:00 +33°C° 0 mm 5 mps 746 mmHg 79%
20:00 +32°C° 0 mm 5 mps 747 mmHg 81%
21:00 +32°C° 0 mm 5 mps 747 mmHg 83%
22:00 +32°C° 0 mm 4 mps 747 mmHg 84%
23:00 +32°C° 0 mm 4 mps 747 mmHg 84%

15 August, Saturday

Time Temperature Precipitation Wind Pressure Humidity
00:00 +30°C° 0 mm 4 mps 747 mmHg 85%
01:00 +30°C° 0.2 mm 3 mps 747 mmHg 85%
02:00 +30°C° 0.2 mm 3 mps 746 mmHg 85%
03:00 +30°C° 0.2 mm 3 mps 746 mmHg 85%
04:00 +30°C° 0 mm 3 mps 746 mmHg 85%
05:00 +30°C° 0 mm 3 mps 746 mmHg 85%
06:00 +30°C° 0 mm 3 mps 746 mmHg 86%
07:00 +32°C° 0 mm 4 mps 746 mmHg 80%
08:00 +33°C° 0 mm 4 mps 746 mmHg 75%
09:00 +34°C° 0 mm 5 mps 747 mmHg 70%
10:00 +35°C° 0.5 mm 5 mps 746 mmHg 68%
11:00 +36°C° 0.5 mm 5 mps 746 mmHg 65%
12:00 +36°C° 0.5 mm 5 mps 746 mmHg 63%
13:00 +36°C° 0.5 mm 5 mps 745 mmHg 62%
14:00 +36°C° 0.5 mm 5 mps 745 mmHg 61%
15:00 +36°C° 0.5 mm 6 mps 745 mmHg 61%
16:00 +35°C° 0.1 mm 6 mps 745 mmHg 65%
17:00 +34°C° 0.1 mm 6 mps 745 mmHg 68%
18:00 +34°C° 0.1 mm 5 mps 745 mmHg 72%
19:00 +33°C° 0 mm 5 mps 746 mmHg 75%
20:00 +33°C° 0 mm 5 mps 747 mmHg 78%
21:00 +32°C° 0 mm 4 mps 747 mmHg 81%
22:00 +32°C° 0.8 mm 4 mps 747 mmHg 82%
23:00 +30°C° 0.8 mm 4 mps 747 mmHg 83%

16 August, Sunday

Time Temperature Precipitation Wind Pressure Humidity
00:00 +30°C° 0.8 mm 4 mps 747 mmHg 84%
01:00 +30°C° 1.9 mm 4 mps 747 mmHg 85%
02:00 +30°C° 1.9 mm 5 mps 747 mmHg 85%
03:00 +30°C° 1.9 mm 5 mps 746 mmHg 85%
04:00 +30°C° 0.6 mm 5 mps 747 mmHg 86%
05:00 +30°C° 0.6 mm 4 mps 747 mmHg 87%
06:00 +30°C° 0.6 mm 4 mps 747 mmHg 88%
07:00 +30°C° 1 mm 4 mps 747 mmHg 84%
08:00 +32°C° 1 mm 5 mps 748 mmHg 81%
09:00 +33°C° 1 mm 6 mps 748 mmHg 77%
10:00 +34°C° 1.6 mm 6 mps 748 mmHg 75%
11:00 +34°C° 1.6 mm 7 mps 748 mmHg 73%
12:00 +34°C° 1.6 mm 7 mps 747 mmHg 72%
13:00 +35°C° 0.3 mm 7 mps 747 mmHg 71%
14:00 +35°C° 0.3 mm 7 mps 746 mmHg 70%
15:00 +35°C° 0.3 mm 7 mps 746 mmHg 70%
16:00 +34°C° 0.1 mm 7 mps 746 mmHg 72%
17:00 +33°C° 0.1 mm 6 mps 746 mmHg 75%
18:00 +33°C° 0.1 mm 6 mps 746 mmHg 77%
19:00 +32°C° 0.1 mm 5 mps 747 mmHg 79%
20:00 +32°C° 0.1 mm 5 mps 748 mmHg 81%
21:00 +30°C° 0.1 mm 4 mps 748 mmHg 83%
22:00 +30°C° 0.5 mm 4 mps 748 mmHg 84%
23:00 +30°C° 0.5 mm 4 mps 748 mmHg 85%
Show more